[[{"header":{"parameterUnit":"m.s-1","parameterCategory":1,"la1":30.2992,"la2":30.254,"lo1":-89.0895,"lo2":-89.0443,"dy":0.0025,"dx":0.0025,"nx":19,"ny":19,"refTime":"2026-05-03T21:00:00:Z","depth":0,"parameterNumber":2,"parameterNumberName":"U-component_of_WINDS"},"data":[0,0,0,-0.4108,-0.4108,-0.414,-0.414,-0.418,-0.418,0,0,0,0,0,0,0,0,0,0,0,-0.4096,-0.4096,-0.4108,-0.4108,-0.414,-0.414,-0.418,-0.418,0,0,0,0,0,0,0,0,0,0,0,-0.4096,-0.4096,-0.4096,-0.4108,-0.414,-0.414,-0.4179,-0.4156,0,0,0,0,0,0,0,0,0,0,-0.4125,-0.4113,-0.4096,-0.4096,-0.4109,-0.414,-0.414,-0.4155,-0.4158,-0.4164,0,-0.4168,0,-0.4175,-0.4182,-0.4182,0,0,0,-0.411,-0.411,-0.4121,-0.4096,-0.4109,-0.414,-0.4126,-0.4156,-0.4159,-0.4167,-0.4169,-0.417,-0.4175,-0.4183,-0.4183,-0.4213,-0.4213,0,0,-0.4108,-0.4101,-0.4119,-0.4123,-0.4117,-0.4125,-0.4127,-0.4158,-0.416,-0.4169,-0.4171,-0.4176,-0.4183,-0.4183,-0.4213,-0.4213,0,0,0,-0.4102,-0.41,-0.4109,-0.4121,-0.4127,-0.4126,-0.4129,-0.4158,-0.4162,-0.4172,-0.4176,-0.4183,-0.4183,-0.4213,-0.4213,-0.4209,0,0,0,-0.4101,-0.4096,-0.4108,-0.4104,-0.4126,-0.4143,-0.4128,-0.416,-0.4164,-0.4176,-0.4183,-0.4184,-0.4213,-0.4213,-0.4209,-0.4208,0,0,0,-0.4095,-0.4095,-0.4099,-0.4104,-0.4117,-0.4142,-0.4148,-0.4161,-0.4167,-0.4182,-0.4184,-0.4213,-0.4213,-0.4209,-0.4208,-0.4214,0,0,0,-0.4086,-0.4095,-0.4099,-0.4111,-0.4117,-0.4139,-0.4148,-0.4165,-0.4178,-0.4183,-0.4213,-0.4213,-0.4209,-0.4208,-0.4214,-0.4219,-0.4219,0,0,-0.4093,-0.4095,-0.4103,-0.4108,-0.4127,-0.4135,-0.4155,-0.4174,-0.4183,-0.4202,-0.4203,-0.4209,-0.4208,-0.4214,-0.4227,-0.4227,0,0,0,-0.4103,-0.4108,-0.4115,-0.4127,-0.4142,-0.4155,-0.4172,-0.4179,-0.4196,-0.4191,-0.4213,-0.4213,-0.4217,-0.4219,-0.422,-0.4224,-0.4213,-0.4213,-0.4213,-0.4102,-0.4113,-0.4126,-0.4141,-0.4153,-0.417,-0.4181,-0.4194,-0.4201,-0.4206,-0.4212,-0.4218,-0.4221,-0.4221,-0.4226,-0.4215,-0.4215,-0.4215,-0.4215,-0.4114,-0.4124,-0.4133,-0.415,-0.4161,-0.4176,-0.4194,-0.4198,-0.4214,-0.4214,-0.4218,-0.4218,-0.4222,-0.4226,-0.4215,-0.4215,-0.4215,-0.4215,-0.4215,-0.4115,-0.4122,-0.413,-0.415,-0.4163,-0.4178,-0.4193,-0.4203,-0.4212,-0.4216,-0.4224,-0.4224,-0.4226,-0.4219,-0.4219,-0.4219,-0.4219,-0.4219,-0.4219,-0.4113,-0.4123,-0.4134,-0.4151,-0.416,-0.4174,-0.4193,-0.4203,-0.4217,-0.4223,-0.4223,-0.423,-0.422,-0.4217,-0.422,-0.422,-0.422,-0.4219,-0.4219,-0.4121,-0.4121,-0.4138,-0.4148,-0.4169,-0.4183,-0.4196,-0.4215,-0.4225,-0.4233,-0.4239,-0.4229,-0.4233,-0.4232,-0.423,-0.4236,-0.4236,-0.4236,-0.4236,-0.4123,-0.4125,-0.4145,-0.416,-0.4176,-0.4189,-0.421,-0.4225,-0.424,-0.4248,-0.4248,-0.4246,-0.4245,-0.4249,-0.4249,-0.4247,-0.4257,-0.4257,-0.4257,-0.4129,-0.4134,-0.4148,-0.4163,-0.4181,-0.4197,-0.4216,-0.4234,-0.4252,-0.4258,-0.4254,-0.4253,-0.425,-0.4248,-0.4254,-0.4252,-0.4249,0,0]},{"header":{"parameterUnit":"m.s-1","parameterCategory":1,"la1":30.2992,"la2":30.254,"lo1":-89.0895,"lo2":-89.0443,"dy":0.0025,"dx":0.0025,"nx":19,"ny":19,"refTime":"2026-05-03T21:00:00:Z","depth":0,"parameterNumber":3,"parameterNumberName":"V-component_of_WINDS"},"data":[0,0,0,5.3764,5.3767,5.3883,5.3884,5.4041,5.4043,0,0,0,0,0,0,0,0,0,0,0,5.3739,5.374,5.3764,5.3767,5.3883,5.3884,5.4041,5.4043,0,0,0,0,0,0,0,0,0,0,0,5.3738,5.374,5.3742,5.3767,5.3883,5.3884,5.404,5.3949,0,0,0,0,0,0,0,0,0,0,5.3834,5.3821,5.3739,5.3742,5.3768,5.3883,5.3884,5.3944,5.3954,5.3993,0,5.4034,0,5.4041,5.4054,5.4055,0,0,0,5.3759,5.3812,5.3835,5.3742,5.3769,5.3883,5.3829,5.395,5.3961,5.4007,5.4036,5.4041,5.4043,5.4055,5.4056,5.431,5.4312,0,0,5.3753,5.3764,5.3827,5.3843,5.383,5.3825,5.3832,5.3957,5.3987,5.4036,5.4045,5.4046,5.4056,5.4057,5.4309,5.4311,0,0,0,5.374,5.376,5.378,5.3837,5.3858,5.3828,5.3837,5.3982,5.3987,5.4046,5.4048,5.4057,5.4059,5.4307,5.4309,5.4394,0,0,0,5.3735,5.3752,5.3777,5.3785,5.3856,5.3922,5.386,5.3979,5.3992,5.4047,5.4057,5.4061,5.4305,5.4308,5.4388,5.4432,0,0,0,5.3728,5.3751,5.3771,5.3786,5.3836,5.392,5.3932,5.3981,5.3994,5.4055,5.4061,5.4304,5.4308,5.4383,5.4423,5.4499,0,0,0,5.3722,5.3847,5.3773,5.3912,5.3836,5.3973,5.3931,5.4033,5.4096,5.4058,5.4306,5.4309,5.4381,5.4418,5.4493,5.4562,5.4594,0,0,5.3885,5.3867,5.3948,5.3885,5.4039,5.3955,5.412,5.4166,5.4161,5.426,5.4266,5.439,5.4423,5.4498,5.4769,5.4794,0,0,0,5.4003,5.406,5.4099,5.4159,5.4199,5.4233,5.4254,5.427,5.4353,5.4216,5.444,5.4459,5.4502,5.4534,5.4555,5.459,5.4326,5.4325,5.4325,5.4247,5.4234,5.4365,5.4366,5.4425,5.4443,5.4487,5.4512,5.4483,5.4536,5.4564,5.473,5.4769,5.4784,5.4821,5.4602,5.4603,5.4603,5.4603,5.4481,5.4558,5.4515,5.4626,5.461,5.4702,5.4723,5.4698,5.4779,5.4709,5.4747,5.4668,5.4812,5.4842,5.461,5.4609,5.4608,5.4607,5.4607,5.4637,5.4671,5.469,5.4773,5.4838,5.4833,5.4912,5.4896,5.488,5.4918,5.4943,5.4941,5.4934,5.4932,5.4932,5.4933,5.4933,5.4934,5.4934,5.479,5.4808,5.4877,5.4927,5.4961,5.5004,5.5022,5.5054,5.5085,5.5066,5.5066,5.5028,5.4831,5.4778,5.4943,5.4941,5.494,5.4939,5.4939,5.5026,5.4969,5.5076,5.5111,5.5165,5.5227,5.5206,5.5272,5.5296,5.5334,5.5289,5.5147,5.5126,5.5109,5.5065,5.5294,5.5294,5.5294,5.5294,5.5154,5.5143,5.5246,5.5301,5.5353,5.5343,5.5459,5.5473,5.5477,5.549,5.5455,5.5398,5.5381,5.537,5.5347,5.5306,5.5591,5.5592,5.5592,5.5296,5.5288,5.5392,5.5397,5.5437,5.5471,5.5578,5.564,5.5633,5.5603,5.5499,5.5486,5.5393,5.5364,5.533,5.5295,5.522,0,0]}]]